[[{"header":{"parameterUnit":"m.s-1","parameterCategory":2,"la1":30.2992,"la2":30.254,"lo1":-89.0895,"lo2":-89.0443,"dy":0.0025,"dx":0.0025,"nx":19,"ny":19,"refTime":"2026-03-26T21:00:00:Z","depth":"0","parameterNumber":2,"parameterNumberName":"U-component_of_CURRENTS"},"data":[0,0,0,0.2932,0.2936,0.3148,0.3149,0.3279,0.328,0,0,0,0,0,0,0,0,0,0,0,0.2842,0.2844,0.2931,0.2937,0.3148,0.3149,0.3279,0.328,0,0,0,0,0,0,0,0,0,0,0,0.2841,0.2843,0.2845,0.2938,0.3148,0.3149,0.3278,0.315,0,0,0,0,0,0,0,0,0,0,0.2961,0.29,0.2843,0.2845,0.2939,0.3147,0.3149,0.3146,0.3158,0.3148,0,0.3188,0,0.3249,0.3287,0.3287,0,0,0,0.2923,0.289,0.2957,0.2845,0.2941,0.3147,0.3049,0.3154,0.3168,0.3164,0.3191,0.3197,0.3251,0.3287,0.3288,0.3421,0.3421,0,0,0.2911,0.2868,0.2947,0.2966,0.3004,0.3042,0.3055,0.3164,0.3172,0.3191,0.3202,0.3253,0.3288,0.3289,0.342,0.3421,0,0,0,0.2887,0.2859,0.2927,0.2959,0.3016,0.3048,0.3064,0.3167,0.3193,0.3203,0.3255,0.3289,0.329,0.3419,0.342,0.3479,0,0,0,0.2879,0.2848,0.2921,0.2896,0.3015,0.3114,0.3064,0.3185,0.32,0.3254,0.3289,0.3291,0.3418,0.342,0.3476,0.3501,0,0,0,0.2831,0.2843,0.2872,0.2893,0.2995,0.3114,0.3146,0.319,0.3231,0.3287,0.3291,0.3418,0.342,0.3473,0.3496,0.3609,0,0,0,0.2772,0.2863,0.2871,0.2988,0.2994,0.3149,0.3147,0.3249,0.3301,0.3289,0.3419,0.342,0.3472,0.3493,0.3605,0.3653,0.3676,0,0,0.2864,0.2873,0.2946,0.296,0.3104,0.3119,0.3256,0.3311,0.3318,0.3368,0.3373,0.3477,0.3496,0.3608,0.3747,0.3768,0,0,0,0.2962,0.3004,0.3054,0.3135,0.3225,0.3292,0.3352,0.3376,0.3441,0.3362,0.3494,0.3504,0.3573,0.3594,0.3611,0.3564,0.3428,0.3428,0.3427,0.2975,0.3048,0.3153,0.3244,0.3322,0.3411,0.347,0.3507,0.3503,0.3539,0.3565,0.3705,0.3726,0.374,0.369,0.358,0.358,0.358,0.358,0.3089,0.3157,0.3205,0.333,0.3377,0.3465,0.3571,0.3588,0.3701,0.3644,0.371,0.3669,0.3762,0.3702,0.3584,0.3584,0.3583,0.3583,0.3582,0.3088,0.3136,0.3191,0.3318,0.3391,0.3485,0.36,0.3693,0.3752,0.3817,0.389,0.3889,0.383,0.3878,0.3879,0.3879,0.388,0.388,0.3881,0.3068,0.3134,0.3191,0.3312,0.3347,0.3462,0.3636,0.3752,0.3937,0.3971,0.3972,0.3879,0.3797,0.3777,0.389,0.3888,0.3887,0.3886,0.3886,0.3148,0.3115,0.3215,0.3248,0.3338,0.3389,0.3602,0.3892,0.4048,0.4168,0.4094,0.4068,0.4066,0.4051,0.4039,0.4213,0.4213,0.4213,0.4213,0.3142,0.3157,0.3211,0.3233,0.3282,0.3349,0.3487,0.3752,0.4069,0.415,0.4201,0.4114,0.4103,0.4096,0.408,0.4065,0.4243,0.4242,0.4242,0.3187,0.3193,0.3207,0.3205,0.3221,0.3266,0.3324,0.3459,0.3928,0.4235,0.4132,0.4131,0.3987,0.3973,0.3942,0.3924,0.3891,0,0]},{"header":{"parameterUnit":"m.s-1","parameterCategory":2,"la1":30.2992,"la2":30.254,"lo1":-89.0895,"lo2":-89.0443,"dy":0.0025,"dx":0.0025,"nx":19,"ny":19,"refTime":"2026-03-26T21:00:00:Z","depth":"0","parameterNumber":3,"parameterNumberName":"V-component_of_CURRENTS"},"data":[0,0,0,-0.0584,-0.0587,-0.0772,-0.0773,-0.1043,-0.1046,0,0,0,0,0,0,0,0,0,0,0,-0.0517,-0.0518,-0.0583,-0.0587,-0.0772,-0.0773,-0.1043,-0.1046,0,0,0,0,0,0,0,0,0,0,0,-0.0517,-0.0517,-0.0518,-0.0588,-0.0771,-0.0773,-0.1042,-0.0899,0,0,0,0,0,0,0,0,0,0,-0.0718,-0.0634,-0.0517,-0.0518,-0.0589,-0.0771,-0.0773,-0.0892,-0.0908,-0.0963,0,-0.0979,0,-0.1013,-0.1063,-0.1063,0,0,0,-0.0607,-0.062,-0.0677,-0.0519,-0.059,-0.0771,-0.0694,-0.0901,-0.0919,-0.0984,-0.0983,-0.0993,-0.1018,-0.1064,-0.1066,-0.1234,-0.1234,0,0,-0.0597,-0.0552,-0.0664,-0.0688,-0.0623,-0.0688,-0.0699,-0.0912,-0.0921,-0.0984,-0.1,-0.1022,-0.1066,-0.1068,-0.1234,-0.1234,0,0,0,-0.0554,-0.0544,-0.0596,-0.0677,-0.0705,-0.0693,-0.0706,-0.0912,-0.093,-0.1003,-0.1025,-0.1067,-0.1071,-0.1234,-0.1234,-0.1102,0,0,0,-0.0549,-0.0518,-0.059,-0.0566,-0.07,-0.0803,-0.0701,-0.0916,-0.0941,-0.1024,-0.1068,-0.1073,-0.1234,-0.1234,-0.1106,-0.0988,0,0,0,-0.0511,-0.0515,-0.0532,-0.0563,-0.0635,-0.0801,-0.0832,-0.0922,-0.0954,-0.1064,-0.1074,-0.1234,-0.1234,-0.1109,-0.0996,-0.0854,0,0,0,-0.0465,-0.0494,-0.0531,-0.0571,-0.0633,-0.0751,-0.0831,-0.0931,-0.1017,-0.1069,-0.1234,-0.1234,-0.111,-0.1001,-0.086,-0.054,-0.0484,0,0,-0.0479,-0.0494,-0.052,-0.0557,-0.0624,-0.0728,-0.0803,-0.0941,-0.1034,-0.1171,-0.1175,-0.1105,-0.0997,-0.0855,-0.0532,-0.0475,0,0,0,-0.051,-0.0519,-0.055,-0.0593,-0.0686,-0.0734,-0.0886,-0.0935,-0.1035,-0.1082,-0.1139,-0.1074,-0.0988,-0.0812,-0.0768,-0.0926,-0.1233,-0.1233,-0.1233,-0.0435,-0.049,-0.0516,-0.0589,-0.0651,-0.0758,-0.0787,-0.0881,-0.1014,-0.1021,-0.0995,-0.0829,-0.0644,-0.0606,-0.0777,-0.106,-0.106,-0.106,-0.1059,-0.0411,-0.0414,-0.0462,-0.0506,-0.0553,-0.0611,-0.0704,-0.0758,-0.0761,-0.0907,-0.0831,-0.0717,-0.0548,-0.0749,-0.1051,-0.1053,-0.1054,-0.1054,-0.1055,-0.0335,-0.0345,-0.0371,-0.039,-0.0387,-0.0471,-0.0349,-0.0469,-0.0589,-0.0534,-0.0336,-0.0335,-0.0478,-0.0505,-0.0504,-0.0503,-0.0502,-0.0501,-0.05,-0.0238,-0.0272,-0.023,-0.0257,-0.0205,-0.0138,-0.013,-0.0053,-0.0022,-0.0113,-0.0112,-0.042,-0.0658,-0.0643,-0.0483,-0.0486,-0.0488,-0.049,-0.0491,-0.017,-0.0148,-0.0085,-0.0024,0.0117,0.0384,0.0356,0.0619,0.0611,0.0713,0.02,0.0116,0.013,0.0095,0.0127,0.0478,0.0478,0.0478,0.0478,-0.0073,-0.0077,0.0079,0.0233,0.0448,0.063,0.114,0.1256,0.0986,0.0776,0.0498,0.0379,0.0347,0.0358,0.0317,0.0346,0.0744,0.0743,0.0743,0.0005,0.0038,0.0193,0.0335,0.061,0.0982,0.1542,0.1785,0.1239,0.0715,0.021,0.0199,-0.0034,-0.0072,-0.0113,-0.0158,-0.0133,0,0]}],[{"header":{"parameterUnit":"m.s-1","parameterCategory":2,"la1":30.2992,"la2":30.254,"lo1":-89.0895,"lo2":-89.0443,"dy":0.0025,"dx":0.0025,"nx":19,"ny":19,"refTime":"2026-03-26T21:00:00:Z","depth":"2","parameterNumber":2,"parameterNumberName":"U-component_of_CURRENTS"},"data":[0,0,0,0.2315,0.2318,0.2517,0.2518,0.2739,0.274,0,0,0,0,0,0,0,0,0,0,0,0.2253,0.2254,0.2314,0.2319,0.2517,0.2518,0.2738,0.274,0,0,0,0,0,0,0,0,0,0,0,0.2252,0.2254,0.2256,0.2319,0.2517,0.2518,0.2738,0.2599,0,0,0,0,0,0,0,0,0,0,0.2412,0.2361,0.2254,0.2256,0.232,0.2517,0.2518,0.2593,0.2608,0.2635,0,0.267,0,0.2702,0.2753,0.2754,0,0,0,0.2331,0.2349,0.2394,0.2256,0.2322,0.2516,0.2431,0.2602,0.2618,0.2654,0.2673,0.2681,0.2706,0.2754,0.2755,0.2861,0.2861,0,0,0.232,0.2299,0.2382,0.2404,0.2379,0.2425,0.2437,0.2612,0.2636,0.2674,0.2687,0.2709,0.2756,0.2757,0.2861,0.2861,0,0,0,0.228,0.2291,0.2333,0.2395,0.243,0.243,0.2445,0.2629,0.2641,0.2689,0.2712,0.2757,0.2759,0.2862,0.2861,0.2961,0,0,0,0.2274,0.2267,0.2328,0.2319,0.2426,0.2537,0.2457,0.2629,0.265,0.2711,0.2757,0.2761,0.2862,0.2862,0.2959,0.3026,0,0,0,0.2243,0.2264,0.2286,0.2317,0.2396,0.2535,0.2559,0.2634,0.2662,0.2754,0.2761,0.2862,0.2862,0.2957,0.3022,0.3186,0,0,0,0.2214,0.2252,0.2286,0.2401,0.2394,0.2526,0.2558,0.2684,0.2768,0.2758,0.2862,0.2861,0.2957,0.3019,0.3181,0.3087,0.3103,0,0,0.2237,0.2255,0.234,0.2375,0.2476,0.2499,0.2611,0.2735,0.2754,0.2805,0.2809,0.296,0.3021,0.3185,0.3049,0.3067,0,0,0,0.2337,0.2393,0.2441,0.2533,0.2601,0.2643,0.2725,0.2763,0.2853,0.2796,0.2918,0.2953,0.3055,0.2984,0.2998,0.2858,0.2858,0.2858,0.2858,0.2342,0.243,0.2538,0.2627,0.2682,0.2752,0.2832,0.2878,0.2886,0.292,0.3003,0.315,0.3068,0.3079,0.2952,0.2952,0.2953,0.2953,0.2953,0.2432,0.2518,0.2605,0.2721,0.2741,0.2816,0.2921,0.2962,0.3123,0.3038,0.3134,0.305,0.31,0.296,0.2959,0.2958,0.2957,0.2956,0.2956,0.2478,0.2495,0.2589,0.2707,0.2804,0.2882,0.3033,0.3151,0.3229,0.3335,0.3321,0.3317,0.3293,0.3415,0.3416,0.3417,0.3418,0.3418,0.3419,0.2416,0.2489,0.2563,0.2705,0.2796,0.2935,0.3154,0.3273,0.3428,0.3439,0.3438,0.3308,0.3293,0.3319,0.3434,0.3432,0.343,0.3428,0.3427,0.244,0.241,0.2538,0.2623,0.2811,0.2857,0.3106,0.3328,0.3523,0.3585,0.3511,0.3504,0.349,0.3474,0.3503,0.3661,0.3661,0.3661,0.366,0.2403,0.241,0.2486,0.2573,0.2699,0.2799,0.2859,0.3018,0.3295,0.3351,0.3363,0.3168,0.3167,0.3123,0.3115,0.3131,0.3193,0.3191,0.319,0.2399,0.2411,0.244,0.2486,0.2614,0.2644,0.2611,0.2613,0.2868,0.3164,0.3205,0.3644,0.3382,0.337,0.3316,0.3298,0.333,0,0]},{"header":{"parameterUnit":"m.s-1","parameterCategory":2,"la1":30.2992,"la2":30.254,"lo1":-89.0895,"lo2":-89.0443,"dy":0.0025,"dx":0.0025,"nx":19,"ny":19,"refTime":"2026-03-26T21:00:00:Z","depth":"2","parameterNumber":3,"parameterNumberName":"V-component_of_CURRENTS"},"data":[0,0,0,-0.003,-0.0032,-0.0162,-0.0163,-0.0463,-0.0466,0,0,0,0,0,0,0,0,0,0,0,0.0009,0.0009,-0.003,-0.0032,-0.0162,-0.0163,-0.0463,-0.0466,0,0,0,0,0,0,0,0,0,0,0,0.001,0.0009,0.0008,-0.0033,-0.0162,-0.0163,-0.0462,-0.0335,0,0,0,0,0,0,0,0,0,0,-0.0194,-0.013,0.0009,0.0008,-0.0033,-0.0161,-0.0163,-0.0328,-0.0343,-0.0437,0,-0.0448,0,-0.0459,-0.0488,-0.0489,0,0,0,-0.0051,-0.0116,-0.0151,0.0008,-0.0034,-0.0161,-0.0109,-0.0335,-0.0353,-0.0458,-0.0452,-0.0463,-0.0464,-0.049,-0.0491,-0.062,-0.0619,0,0,-0.0044,-0.0024,-0.0138,-0.0161,-0.0061,-0.0104,-0.0112,-0.0345,-0.0365,-0.0453,-0.0469,-0.0469,-0.0492,-0.0494,-0.0621,-0.062,0,0,0,-0.0011,-0.0019,-0.0045,-0.0149,-0.0159,-0.0108,-0.0117,-0.0354,-0.0362,-0.0472,-0.0472,-0.0494,-0.0498,-0.0622,-0.0621,-0.0521,0,0,0,-0.0007,0.0001,-0.0042,-0.0033,-0.0153,-0.0239,-0.0121,-0.0346,-0.0372,-0.0471,-0.0494,-0.0501,-0.0623,-0.0622,-0.0526,-0.0452,0,0,0,0.0014,0.0003,-0.0008,-0.0031,-0.0078,-0.0235,-0.0256,-0.0351,-0.0372,-0.0489,-0.0502,-0.0624,-0.0622,-0.0531,-0.0461,-0.0354,0,0,0,0.0033,0.0066,-0.0007,-0.0026,-0.0076,-0.0112,-0.0254,-0.0339,-0.0429,-0.0495,-0.0623,-0.0621,-0.0532,-0.0466,-0.036,-0.0181,-0.0139,0,0,0.0102,0.0074,0.0052,-0.0015,0.0005,-0.0096,-0.01,-0.0299,-0.0421,-0.0564,-0.0566,-0.0524,-0.0461,-0.0355,-0.0045,-0.0006,0,0,0,0.0088,0.0074,0.0058,0.0026,-0.001,-0.0014,-0.0167,-0.0245,-0.0389,-0.0459,-0.0504,-0.0466,-0.0403,-0.0308,-0.0277,-0.061,-0.061,-0.061,-0.061,0.0162,0.0124,0.0129,0.0094,0.009,0.0022,-0.0027,-0.0153,-0.0304,-0.0337,-0.0371,-0.02,-0.0097,-0.0072,-0.0373,-0.0372,-0.0372,-0.0371,-0.0371,0.023,0.0226,0.0189,0.0191,0.0194,0.0181,0.0077,-0.0029,-0.0103,-0.0241,-0.0186,-0.019,-0.0031,-0.0363,-0.0364,-0.0366,-0.0366,-0.0367,-0.0368,0.0265,0.0294,0.0262,0.0294,0.0308,0.0249,0.0331,0.0165,0.0008,0.0028,0.0134,0.0133,-0.0124,0.0051,0.0052,0.0053,0.0054,0.0054,0.0055,0.0364,0.0368,0.0396,0.039,0.041,0.0457,0.0443,0.0474,0.0416,0.0297,0.0298,-0.0056,-0.007,-0.0098,0.0067,0.0065,0.0063,0.0062,0.0061,0.043,0.0466,0.0525,0.0553,0.0649,0.0871,0.0846,0.0964,0.0922,0.0932,0.0458,0.0444,0.044,0.0416,0.04,0.0685,0.0685,0.0685,0.0686,0.0482,0.0502,0.0657,0.0792,0.0962,0.1095,0.1434,0.1359,0.1095,0.0864,0.0855,0.0775,0.0748,0.0753,0.072,0.0706,0.1072,0.1072,0.1072,0.0502,0.0579,0.0708,0.0893,0.1117,0.1421,0.1679,0.1569,0.1187,0.1075,0.0794,0.0736,0.059,0.0559,0.0534,0.0494,0.0459,0,0]}],[{"header":{"parameterUnit":"m.s-1","parameterCategory":2,"la1":30.2992,"la2":30.254,"lo1":-89.0895,"lo2":-89.0443,"dy":0.0025,"dx":0.0025,"nx":19,"ny":19,"refTime":"2026-03-26T21:00:00:Z","depth":"4","parameterNumber":2,"parameterNumberName":"U-component_of_CURRENTS"},"data":[0,0,0,0.1116,0.1118,0.1192,0.1192,0.1261,0.1262,0,0,0,0,0,0,0,0,0,0,0,0.1077,0.1077,0.1115,0.1118,0.1192,0.1192,0.1261,0.1262,0,0,0,0,0,0,0,0,0,0,0,0.1076,0.1077,0.1078,0.1118,0.1192,0.1192,0.1261,0.1207,0,0,0,0,0,0,0,0,0,0,0.1137,0.1118,0.1077,0.1078,0.1119,0.1192,0.1192,0.1205,0.121,0.1226,0,0.1243,0,0.1269,0.1268,0.1268,0,0,0,0.11,0.1113,0.1132,0.1078,0.112,0.1192,0.1153,0.1208,0.1215,0.1234,0.1244,0.1248,0.127,0.1268,0.1269,0.1403,0.1404,0,0,0.1096,0.109,0.1128,0.1137,0.1147,0.1151,0.1156,0.1212,0.1222,0.1245,0.125,0.1271,0.1269,0.1269,0.1402,0.1403,0,0,0,0.1097,0.1087,0.1105,0.1133,0.1157,0.1154,0.1159,0.1219,0.1225,0.1251,0.1272,0.1269,0.127,0.1401,0.1403,0.1455,0,0,0,0.1093,0.1089,0.1103,0.11,0.1156,0.1196,0.1165,0.1221,0.1229,0.1271,0.1269,0.1271,0.14,0.1402,0.1452,0.152,0,0,0,0.1072,0.1087,0.1097,0.11,0.1141,0.1195,0.1204,0.1223,0.1243,0.1268,0.1271,0.14,0.1402,0.1449,0.1514,0.1632,0,0,0,0.1059,0.104,0.1097,0.1085,0.1141,0.119,0.1204,0.1255,0.128,0.127,0.1401,0.1403,0.1448,0.151,0.1627,0.1402,0,0,0,0.1013,0.1034,0.1023,0.1076,0.1113,0.1178,0.125,0.1298,0.1317,0.1375,0.1378,0.1453,0.1513,0.1631,0.152,0,0,0,0,0.0993,0.0993,0.1011,0.1055,0.1118,0.1214,0.1285,0.1314,0.1392,0.1346,0.1479,0.1517,0.1589,0.1442,0.1412,0.1412,0.1412,0.1412,0.1411,0.0943,0.0971,0.0981,0.1041,0.1118,0.126,0.1356,0.1428,0.1427,0.1472,0.1576,0.1731,0.1575,0.1571,0.1572,0.1572,0.1572,0.1572,0.1572,0.0881,0.087,0.0982,0.1003,0.1147,0.1266,0.1438,0.1494,0.1692,0.1611,0.1678,0.1526,0.1578,0.1577,0.1576,0.1576,0.1575,0.1575,0.1575,0.0822,0.0816,0.0864,0.0963,0.113,0.1309,0.1529,0.166,0.1765,0.1889,0.1778,0.1813,0.1793,0.1933,0.1934,0.1935,0.1936,0.1936,0.1937,0.0728,0.0772,0.0806,0.0934,0.1049,0.1279,0.1576,0.1734,0.1883,0.1871,0.1943,0.1854,0.1843,0.1818,0.1949,0.1947,0.1946,0.1944,0.1943,0.0585,0.0664,0.0691,0.0771,0.1014,0.1186,0.1484,0.1741,0.1899,0.1963,0.1863,0.1863,0.1848,0.1838,0.181,0.1946,0.1944,0.1941,0,0.0511,0.0543,0.0592,0.0684,0.0861,0.1109,0.1336,0.1563,0.1732,0.1663,0.1871,0.1745,0.1746,0.171,0.1699,0.1656,0,0,0,0.0433,0.0471,0.0465,0.058,0.076,0.1103,0.1397,0.1434,0.1712,0.1801,0.1883,0.1899,0.1881,0.1987,0.1967,0.1953,0.1914,0,0]},{"header":{"parameterUnit":"m.s-1","parameterCategory":2,"la1":30.2992,"la2":30.254,"lo1":-89.0895,"lo2":-89.0443,"dy":0.0025,"dx":0.0025,"nx":19,"ny":19,"refTime":"2026-03-26T21:00:00:Z","depth":"4","parameterNumber":3,"parameterNumberName":"V-component_of_CURRENTS"},"data":[0,0,0,0.0354,0.0355,0.0421,0.0421,0.0437,0.0437,0,0,0,0,0,0,0,0,0,0,0,0.033,0.033,0.0354,0.0356,0.042,0.0421,0.0437,0.0437,0,0,0,0,0,0,0,0,0,0,0,0.033,0.033,0.0331,0.0356,0.042,0.0421,0.0437,0.0404,0,0,0,0,0,0,0,0,0,0,0.0349,0.0343,0.033,0.0331,0.0356,0.042,0.0421,0.0403,0.0406,0.0389,0,0.0403,0,0.042,0.0437,0.0437,0,0,0,0.0354,0.0341,0.0353,0.0331,0.0357,0.042,0.0391,0.0405,0.0408,0.0392,0.0403,0.0405,0.0421,0.0437,0.0437,0.0468,0.0468,0,0,0.035,0.0345,0.0351,0.0355,0.0378,0.0389,0.0393,0.0408,0.0414,0.0404,0.0405,0.0421,0.0436,0.0436,0.0467,0.0468,0,0,0,0.0341,0.0342,0.0356,0.0354,0.0371,0.039,0.0395,0.0414,0.0417,0.0406,0.0421,0.0436,0.0436,0.0467,0.0467,0.0536,0,0,0,0.0339,0.0337,0.0354,0.0352,0.0372,0.0404,0.0401,0.0416,0.0419,0.0421,0.0436,0.0436,0.0467,0.0467,0.0534,0.0582,0,0,0,0.0326,0.0336,0.0344,0.0352,0.0381,0.0405,0.041,0.0417,0.0427,0.0437,0.0436,0.0466,0.0467,0.0531,0.0577,0.0545,0,0,0,0.0318,0.0374,0.0344,0.0418,0.038,0.0453,0.041,0.0457,0.0473,0.0436,0.0467,0.0467,0.053,0.0574,0.0543,0.0515,0,0,0,0.0392,0.0382,0.043,0.0406,0.0497,0.0444,0.0519,0.0511,0.0474,0.0455,0.0457,0.0534,0.0576,0.0545,0.0567,0,0,0,0,0.0457,0.0491,0.0515,0.0558,0.0578,0.058,0.0573,0.0542,0.0528,0.0487,0.0533,0.0558,0.0535,0.0513,0.0472,0.0472,0.0472,0.0471,0.0471,0.0534,0.0561,0.0639,0.0668,0.0702,0.0679,0.0673,0.0623,0.0591,0.0581,0.0612,0.0638,0.062,0.0599,0.06,0.06,0.06,0.06,0.0601,0.0645,0.0693,0.0717,0.0807,0.079,0.084,0.0775,0.0732,0.0691,0.0659,0.0632,0.0588,0.0607,0.0606,0.0605,0.0604,0.0604,0.0603,0.0603,0.0694,0.0719,0.0777,0.0877,0.0935,0.0934,0.0941,0.0874,0.0771,0.0761,0.068,0.0669,0.0661,0.0728,0.0729,0.0729,0.0729,0.0729,0.0729,0.0709,0.0766,0.0852,0.0951,0.1025,0.1082,0.103,0.097,0.0855,0.0765,0.0775,0.068,0.0676,0.0667,0.073,0.073,0.073,0.073,0.073,0.077,0.0791,0.0912,0.0993,0.1136,0.1161,0.1145,0.0967,0.0875,0.076,0.0731,0.073,0.0691,0.0686,0.0675,0.0744,0.0744,0.0744,0,0.0782,0.0808,0.0934,0.1051,0.1144,0.1192,0.1092,0.0989,0.0819,0.0819,0.0842,0.0817,0.0813,0.0776,0.0771,0.0763,0,0,0,0.0797,0.0835,0.09,0.1022,0.1132,0.1087,0.1052,0.0962,0.0902,0.0755,0.074,0.0741,0.0754,0.0735,0.0672,0.0667,0.0648,0,0]}]]